Radiation Dose at Monitoring Post of Fukushima Daini Nuclear Power Station
Date,Time,MP-1(microSv/h),MP-2(microSv/h),MP-3(microSv/h),MP-4(microSv/h),MP-5(microSv/h),MP-6(microSv/h),MP-7(microSv/h),Wind Direction,Wind Velocity(m/s),Rain
2023/05/21,00:00,0.145,0.130,0.205,0.197,0.206,0.116,0.075,north-northwest,6.6,No
2023/05/21,00:10,0.144,0.130,0.206,0.199,0.208,0.116,0.075,northwest,6.5,No
2023/05/21,00:20,0.145,0.130,0.208,0.197,0.206,0.116,0.075,northwest,7.7,No
2023/05/21,00:30,0.143,0.130,0.205,0.199,0.207,0.115,0.074,north-northwest,7.3,No
2023/05/21,00:40,0.145,0.129,0.206,0.197,0.207,0.116,0.075,north-northwest,6.3,No
2023/05/21,00:50,0.144,0.130,0.205,0.198,0.209,0.116,0.074,north-northwest,5.5,No
2023/05/21,01:00,0.145,0.130,0.205,0.198,0.208,0.116,0.073,north-northwest,5.5,Yes
2023/05/21,01:10,0.144,0.132,0.205,0.197,0.208,0.116,0.075,north-northwest,4.6,No
2023/05/21,01:20,0.143,0.130,0.206,0.198,0.207,0.116,0.074,north-northwest,4.8,No
2023/05/21,01:30,0.145,0.129,0.207,0.198,0.208,0.115,0.074,north-northwest,3.7,No
2023/05/21,01:40,0.143,0.130,0.205,0.199,0.208,0.117,0.074,north-northwest,3.5,No
2023/05/21,01:50,0.145,0.130,0.207,0.198,0.207,0.116,0.074,north,3.1,No
2023/05/21,02:00,0.144,0.130,0.205,0.199,0.209,0.116,0.075,north,3.1,No
2023/05/21,02:10,0.144,0.130,0.205,0.197,0.207,0.116,0.075,north,2.9,No
2023/05/21,02:20,0.144,0.131,0.206,0.199,0.209,0.116,0.074,north-northwest,3.1,No
2023/05/21,02:30,0.144,0.129,0.205,0.198,0.208,0.116,0.074,north,3.1,No
2023/05/21,02:40,0.144,0.131,0.206,0.199,0.208,0.116,0.075,north,2.5,No
2023/05/21,02:50,0.145,0.130,0.204,0.198,0.207,0.115,0.075,north,3.3,No
2023/05/21,03:00,0.144,0.130,0.206,0.198,0.207,0.116,0.075,north-northwest,3.5,No
2023/05/21,03:10,0.144,0.130,0.205,0.198,0.207,0.116,0.075,north-northwest,3.1,No
2023/05/21,03:20,0.143,0.130,0.206,0.199,0.208,0.117,0.074,north-northwest,3.7,No
2023/05/21,03:30,0.145,0.131,0.206,0.199,0.208,0.116,0.074,north-northwest,4.4,No
2023/05/21,03:40,0.144,0.130,0.206,0.199,0.208,0.116,0.075,north-northwest,4.7,No
2023/05/21,03:50,0.145,0.131,0.206,0.198,0.206,0.116,0.075,north-northwest,4.0,No
2023/05/21,04:00,0.144,0.130,0.206,0.199,0.208,0.116,0.075,north-northwest,3.3,No
2023/05/21,04:10,0.144,0.130,0.207,0.200,0.208,0.116,0.075,north-northwest,3.2,No
2023/05/21,04:20,0.143,0.130,0.205,0.198,0.208,0.115,0.075,north,3.6,No
2023/05/21,04:30,0.145,0.131,0.207,0.199,0.206,0.116,0.074,north-northwest,3.5,No
2023/05/21,04:40,0.145,0.130,0.205,0.197,0.208,0.117,0.075,north,3.5,No
2023/05/21,04:50,0.144,0.130,0.207,0.199,0.207,0.115,0.074,north,3.1,No
2023/05/21,05:00,0.144,0.130,0.206,0.198,0.208,0.116,0.074,north,2.2,No
2023/05/21,05:10,0.144,0.129,0.206,0.198,0.207,0.116,0.074,north,2.6,No
2023/05/21,05:20,0.144,0.130,0.206,0.198,0.209,0.117,0.075,north,2.1,No
2023/05/21,05:30,0.145,0.130,0.207,0.198,0.207,0.116,0.074,north,1.5,No
2023/05/21,05:40,0.144,0.130,0.207,0.198,0.208,0.115,0.074,north,1.2,No
2023/05/21,05:50,0.145,0.130,0.206,0.198,0.206,0.115,0.074,north,1.7,No
2023/05/21,06:00,0.144,0.130,0.205,0.196,0.207,0.116,0.074,northeast,0.6,No
2023/05/21,06:10,0.144,0.130,0.205,0.197,0.207,0.116,0.074,-,CALM,No
2023/05/21,06:20,0.144,0.131,0.206,0.197,0.208,0.116,0.074,-,CALM,No
2023/05/21,06:30,0.144,0.129,0.205,0.197,0.207,0.116,0.074,north-northwest,1.2,No
2023/05/21,06:40,0.144,0.131,0.206,0.198,0.206,0.116,0.074,-,CALM,No
2023/05/21,06:50,0.145,0.129,0.205,0.198,0.208,0.115,0.075,-,CALM,No
2023/05/21,07:00,0.144,0.130,0.203,0.199,0.205,0.116,0.074,-,CALM,No
2023/05/21,07:10,0.145,0.130,0.206,0.197,0.207,0.116,0.074,north-northeast,0.8,No
2023/05/21,07:20,0.144,0.130,0.204,0.198,0.207,0.116,0.075,east-northeast,1.4,No
2023/05/21,07:30,0.144,0.130,0.206,0.197,0.206,0.117,0.075,east-northeast,0.9,No
2023/05/21,07:40,0.144,0.129,0.205,0.196,0.208,0.116,0.074,east-northeast,1.2,No
2023/05/21,07:50,0.145,0.130,0.205,0.198,0.206,0.116,0.075,east,1.5,No
2023/05/21,08:00,0.145,0.130,0.204,0.196,0.208,0.116,0.074,east-southeast,1.7,No
2023/05/21,08:10,0.144,0.130,0.207,0.197,0.208,0.116,0.073,east-southeast,2.2,No
2023/05/21,08:20,0.145,0.130,0.204,0.199,0.207,0.116,0.074,east-southeast,1.9,No
2023/05/21,08:30,0.144,0.130,0.204,0.199,0.208,0.116,0.075,southeast,1.9,No
2023/05/21,08:40,0.145,0.130,0.205,0.196,0.209,0.115,0.074,southeast,2.4,No
2023/05/21,08:50,0.145,0.130,0.206,0.197,0.206,0.116,0.074,southeast,2.0,No
2023/05/21,09:00,0.143,0.130,0.207,0.197,0.206,0.117,0.074,southeast,2.4,No
2023/05/21,09:10,0.144,0.129,0.206,0.200,0.208,0.115,0.074,southeast,2.3,No
2023/05/21,09:20,0.144,0.131,0.204,0.197,0.208,0.116,0.075,southeast,2.1,No
2023/05/21,09:30,0.143,0.131,0.204,0.196,0.206,0.117,0.075,southeast,2.4,No
2023/05/21,09:40,0.143,0.128,0.206,0.196,0.206,0.115,0.073,south-southeast,4.2,No
2023/05/21,09:50,0.145,0.129,0.208,0.197,0.208,0.115,0.075,south-southeast,3.3,No
2023/05/21,10:00,0.145,0.130,0.205,0.199,0.208,0.116,0.074,southeast,2.5,No
2023/05/21,10:10,0.144,0.130,0.205,0.199,0.207,0.116,0.074,south-southeast,3.7,No
2023/05/21,10:20,0.143,0.130,0.205,0.199,0.205,0.115,0.073,southeast,5.3,No
2023/05/21,10:30,0.142,0.129,0.206,0.198,0.208,0.115,0.074,south-southeast,6.6,No
2023/05/21,10:40,0.144,0.131,0.208,0.197,0.209,0.116,0.074,south-southeast,6.4,No
2023/05/21,10:50,0.145,0.130,0.207,0.199,0.208,0.115,0.075,south-southeast,7.2,No
2023/05/21,11:00,0.145,0.130,0.204,0.199,0.207,0.115,0.074,south-southeast,7.4,No
2023/05/21,11:10,0.144,0.129,0.204,0.198,0.206,0.117,0.074,south-southeast,7.9,No
2023/05/21,11:20,0.142,0.129,0.207,0.198,0.210,0.116,0.073,south-southeast,8.8,No
2023/05/21,11:30,0.143,0.131,0.209,0.196,0.209,0.115,0.074,south-southeast,9.0,No
2023/05/21,11:40,0.145,0.130,0.208,0.200,0.207,0.116,0.075,south-southeast,9.2,No
2023/05/21,11:50,0.144,0.130,0.204,0.201,0.206,0.117,0.074,south-southeast,9.8,No
2023/05/21,12:00,0.144,0.130,0.204,0.199,0.206,0.116,0.074,south-southeast,9.5,No
2023/05/21,12:10,0.144,0.131,0.207,0.198,0.208,0.116,0.075,south-southeast,9.5,No
2023/05/21,12:20,0.143,0.130,0.208,0.199,0.208,0.116,0.075,south-southeast,10.3,No
2023/05/21,12:30,0.145,0.130,0.207,0.201,0.207,0.117,0.074,south-southeast,10.6,No
2023/05/21,12:40,0.145,0.131,0.206,0.200,0.206,0.116,0.074,south-southeast,8.7,No
2023/05/21,12:50,0.144,0.131,0.205,0.198,0.210,0.117,0.074,south-southeast,8.3,No
2023/05/21,13:00,0.144,0.130,0.207,0.198,0.211,0.117,0.075,south-southeast,9.5,No
2023/05/21,13:10,0.143,0.130,0.209,0.200,0.207,0.116,0.074,south-southeast,8.7,No
2023/05/21,13:20,0.144,0.130,0.208,0.202,0.207,0.117,0.074,south-southeast,11.1,No
2023/05/21,13:30,0.146,0.131,0.207,0.201,0.207,0.116,0.074,south-southeast,10.9,No
2023/05/21,13:40,0.144,0.131,0.206,0.198,0.206,0.117,0.074,south-southeast,10.3,No
2023/05/21,13:50,0.144,0.129,0.206,0.199,0.210,0.116,0.075,south-southeast,10.7,No
2023/05/21,14:00,0.144,0.130,0.206,0.200,0.209,0.115,0.075,south-southeast,9.5,No
2023/05/21,14:10,0.143,0.130,0.208,0.202,0.209,0.116,0.075,south-southeast,11.7,No
2023/05/21,14:20,0.143,0.131,0.209,0.201,0.207,0.117,0.074,south-southeast,10.9,No
2023/05/21,14:30,0.144,0.131,0.209,0.198,0.206,0.117,0.074,south-southeast,12.0,No
2023/05/21,14:40,0.145,0.131,0.207,0.198,0.206,0.116,0.074,south-southeast,12.8,No
2023/05/21,14:50,0.145,0.130,0.207,0.200,0.210,0.116,0.075,south-southeast,11.2,No
2023/05/21,15:00,0.144,0.132,0.207,0.201,0.211,0.117,0.075,south-southeast,11.4,No
2023/05/21,15:10,0.143,0.131,0.209,0.200,0.208,0.117,0.074,south,10.6,No
2023/05/21,15:20,0.144,0.131,0.210,0.199,0.208,0.116,0.075,south-southeast,10.6,No
2023/05/21,15:30,0.145,0.131,0.207,0.202,0.212,0.117,0.075,south,9.8,No
2023/05/21,15:40,0.145,0.130,0.210,0.201,0.211,0.116,0.074,south,10.6,No
2023/05/21,15:50,0.145,0.131,0.209,0.200,0.207,0.116,0.075,south,9.8,No
2023/05/21,16:00,0.146,0.132,0.207,0.202,0.210,0.117,0.075,south,10.9,No
2023/05/21,16:10,0.146,0.132,0.209,0.201,0.209,0.117,0.074,south-southeast,10.3,No
2023/05/21,16:20,0.144,0.130,0.210,0.200,0.208,0.117,0.074,south,9.8,No
2023/05/21,16:30,0.145,0.132,0.208,0.201,0.210,0.116,0.075,south,9.5,No
2023/05/21,16:40,0.146,0.131,0.209,0.201,0.211,0.117,0.074,south,8.9,No
2023/05/21,16:50,0.144,0.131,0.210,0.200,0.209,0.116,0.075,south,7.4,No
2023/05/21,17:00,0.145,0.132,0.207,0.202,0.210,0.116,0.074,south,6.6,No
2023/05/21,17:10,0.145,0.131,0.209,0.200,0.210,0.117,0.074,south,7.6,No
2023/05/21,17:20,0.145,0.131,0.210,0.200,0.209,0.117,0.076,south,5.9,No
2023/05/21,17:30,0.145,0.131,0.207,0.202,0.209,0.117,0.074,south,6.9,No
2023/05/21,17:40,0.146,0.131,0.210,0.200,0.212,0.117,0.075,south-southwest,7.3,No
2023/05/21,17:50,0.144,0.131,0.208,0.200,0.208,0.116,0.075,south-southwest,8.3,No
2023/05/21,18:00,0.147,0.132,0.209,0.202,0.210,0.118,0.074,south,6.5,No
2023/05/21,18:10,0.146,0.130,0.211,0.200,0.210,0.117,0.075,south,6.0,No
2023/05/21,18:20,0.144,0.132,0.207,0.202,0.208,0.116,0.075,south,4.9,No
2023/05/21,18:30,0.146,0.131,0.209,0.202,0.212,0.117,0.075,south,4.4,No
2023/05/21,18:40,0.146,0.131,0.208,0.201,0.210,0.116,0.075,south,4.1,No
2023/05/21,18:50,0.146,0.132,0.208,0.202,0.209,0.118,0.075,south,4.2,No
2023/05/21,19:00,0.145,0.131,0.210,0.200,0.210,0.119,0.075,south,5.2,No
2023/05/21,19:10,0.146,0.132,0.208,0.203,0.208,0.117,0.074,south,4.8,No
2023/05/21,19:20,0.146,0.132,0.209,0.202,0.211,0.118,0.075,south,4.4,No
2023/05/21,19:30,0.144,0.132,0.208,0.202,0.209,0.116,0.075,south-southwest,3.4,No
2023/05/21,19:40,0.146,0.131,0.211,0.202,0.209,0.117,0.075,south,3.1,No
2023/05/21,19:50,-,-,-,-,-,-,-,-,-,-
2023/05/21,20:00,0.145,0.132,0.211,0.203,0.209,0.117,0.076,south,2.5,No
2023/05/21,20:10,0.147,0.133,0.209,0.201,0.211,0.117,0.075,south,2.4,No
2023/05/21,20:20,0.144,0.131,0.210,0.202,0.208,0.116,0.076,south,2.8,No
2023/05/21,20:30,0.146,0.132,0.208,0.200,0.212,0.117,0.075,south-southwest,2.6,No
2023/05/21,20:40,0.145,0.131,0.211,0.204,0.209,0.116,0.075,south-southwest,2.7,No
2023/05/21,20:50,0.146,0.133,0.208,0.202,0.211,0.118,0.076,south-southwest,2.8,No
2023/05/21,21:00,0.146,0.132,0.210,0.203,0.210,0.117,0.075,south,3.1,No
2023/05/21,21:10,0.145,0.132,0.209,0.201,0.210,0.117,0.076,south-southwest,2.8,No
2023/05/21,21:20,0.146,0.131,0.211,0.203,0.211,0.117,0.075,south-southwest,2.4,No
2023/05/21,21:30,0.146,0.132,0.209,0.202,0.209,0.118,0.076,south-southwest,2.6,No
2023/05/21,21:40,0.146,0.132,0.210,0.201,0.211,0.118,0.076,southwest,2.1,No
2023/05/21,21:50,0.146,0.132,0.210,0.201,0.209,0.117,0.076,west-southwest,1.8,No
2023/05/21,22:00,0.147,0.132,0.211,0.202,0.213,0.117,0.076,west-southwest,1.2,No
2023/05/21,22:10,0.144,0.132,0.210,0.203,0.209,0.117,0.075,west-southwest,1.6,No
2023/05/21,22:20,0.146,0.132,0.211,0.203,0.211,0.118,0.077,west,1.7,No
2023/05/21,22:30,0.146,0.132,0.210,0.202,0.209,0.117,0.075,northwest,1.5,No
2023/05/21,22:40,0.147,0.132,0.211,0.202,0.211,0.118,0.076,northwest,2.3,No
2023/05/21,22:50,0.146,0.132,0.209,0.203,0.209,0.117,0.076,north-northwest,0.8,No
2023/05/21,23:00,0.146,0.132,0.211,0.202,0.210,0.118,0.076,north-northwest,0.7,No
2023/05/21,23:10,0.146,0.132,0.210,0.204,0.211,0.118,0.076,-,CALM,No
2023/05/21,23:20,0.146,0.132,0.211,0.201,0.209,0.118,0.077,-,CALM,No
2023/05/21,23:30,0.147,0.132,0.209,0.203,0.211,0.117,0.076,-,CALM,No
2023/05/21,23:40,0.146,0.132,0.211,0.202,0.208,0.118,0.076,-,CALM,No
2023/05/21,23:50,0.147,0.131,0.211,0.203,0.211,0.118,0.076,west,2.5,No
